TimeIST,TemperatureF,Dew PointF,Humidity,Sea Level PressureIn,VisibilityMPH,Wind Direction,Wind SpeedMPH,Gust SpeedMPH,PrecipitationIn,Events,Conditions,WindDirDegrees,DateUTC
12:00 AM,62.6,60.8,94,29.89,1.2,Calm,Calm,-,N/A,,Mist,0,2013-03-10 18:30:00
12:30 AM,64.4,60.8,88,29.89,1.2,Calm,Calm,-,N/A,,Mist,0,2013-03-10 19:00:00
1:00 AM,68.0,60.8,78,29.89,1.2,Calm,Calm,-,N/A,,Mist,0,2013-03-10 19:30:00
1:30 AM,66.2,60.8,83,29.86,1.2,Calm,Calm,-,N/A,,Mist,0,2013-03-10 20:00:00
2:00 AM,64.4,60.8,88,29.86,1.2,Calm,Calm,-,N/A,,Mist,0,2013-03-10 20:30:00
2:30 AM,62,62,99,29.87,1,Calm,Calm,,,,Mist,,2013-03-10 21:00:00
2:30 AM,62.6,60.8,94,29.86,1.2,Calm,Calm,-,N/A,,Mist,0,2013-03-10 21:00:00
3:00 AM,62.6,59.0,88,29.86,1.0,Calm,Calm,-,N/A,,Mist,0,2013-03-10 21:30:00
5:30 AM,58,58,100,29.87,1,Calm,Calm,,,,Mist,,2013-03-11 00:00:00
6:00 AM,59.0,57.2,94,29.86,1.0,Calm,Calm,-,N/A,,Mist,0,2013-03-11 00:30:00
6:30 AM,59.0,57.2,94,29.86,1.2,Calm,Calm,-,N/A,,Mist,0,2013-03-11 01:00:00
7:30 AM,59.0,59.0,100,29.89,1.0,Calm,Calm,-,N/A,,Scattered Clouds,0,2013-03-11 02:00:00
8:00 AM,60.8,59.0,94,29.89,1.6,Calm,Calm,-,N/A,,Scattered Clouds,0,2013-03-11 02:30:00
8:30 AM,64,60,82,29.90,1,Calm,Calm,,,,Mist,,2013-03-11 03:00:00
8:30 AM,64.4,59.0,83,29.92,1.9,Calm,Calm,-,N/A,,Scattered Clouds,0,2013-03-11 03:00:00
9:00 AM,64.4,60.8,88,29.92,2.5,Calm,Calm,-,N/A,,Scattered Clouds,0,2013-03-11 03:30:00
9:30 AM,68.0,60.8,78,29.92,3.1,Calm,Calm,-,N/A,,Scattered Clouds,0,2013-03-11 04:00:00
10:00 AM,69.8,62.6,78,29.92,2.5,Calm,Calm,-,N/A,,Scattered Clouds,0,2013-03-11 04:30:00
10:30 AM,73.4,64.4,73,29.95,1.9,Calm,Calm,-,N/A,,Haze,0,2013-03-11 05:00:00
11:00 AM,75.2,64.4,69,29.92,1.9,Calm,Calm,-,N/A,,Haze,0,2013-03-11 05:30:00
11:30 AM,78,66,58,29.91,1,Calm,Calm,,,,Haze,,2013-03-11 06:00:00
11:30 AM,77.0,66.2,69,29.95,2.2,Calm,Calm,-,N/A,,Haze,0,2013-03-11 06:00:00
12:00 PM,78.8,64.4,61,29.92,2.2,Calm,Calm,-,N/A,,Haze,0,2013-03-11 06:30:00
12:30 PM,80.6,64.4,58,29.92,2.2,Calm,Calm,-,N/A,,Haze,0,2013-03-11 07:00:00
1:00 PM,80.6,62.6,54,29.92,2.5,Calm,Calm,-,N/A,,Haze,0,2013-03-11 07:30:00
1:30 PM,82.4,64.4,54,29.92,2.5,Calm,Calm,-,N/A,,Haze,0,2013-03-11 08:00:00
2:00 PM,82.4,64.4,54,29.89,2.5,WNW,3.5,-,N/A,,Haze,300,2013-03-11 08:30:00
2:30 PM,81,64,48,29.86,2,WNW,5.8,,,,Haze,290,2013-03-11 09:00:00
2:30 PM,80.6,64.4,58,29.89,2.5,WNW,5.8,-,N/A,,Haze,290,2013-03-11 09:00:00
3:00 PM,82.4,64.4,54,29.89,2.5,NW,6.9,-,N/A,,Haze,310,2013-03-11 09:30:00
3:30 PM,82.4,66.2,58,29.86,2.5,Variable,6.9,-,N/A,,Haze,0,2013-03-11 10:00:00
4:00 PM,80.6,64.4,58,29.86,2.5,Variable,4.6,-,N/A,,Haze,0,2013-03-11 10:30:00
4:30 PM,80.6,62.6,54,29.86,2.5,Variable,4.6,-,N/A,,Haze,0,2013-03-11 11:00:00
5:00 PM,80.6,62.6,54,29.86,2.5,North,4.6,-,N/A,,Haze,350,2013-03-11 11:30:00
5:30 PM,78.8,62.6,57,29.86,2.5,Variable,5.8,-,N/A,,Haze,0,2013-03-11 12:00:00
6:00 PM,77.0,60.8,57,29.86,2.5,Variable,1.2,-,N/A,,Haze,0,2013-03-11 12:30:00
6:30 PM,77.0,60.8,57,29.86,2.5,Calm,Calm,-,N/A,,Haze,0,2013-03-11 13:00:00
7:00 PM,75.2,60.8,61,29.86,2.5,Calm,Calm,-,N/A,,Haze,0,2013-03-11 13:30:00
7:30 PM,73.4,59.0,61,29.89,2.5,Calm,Calm,-,N/A,,Haze,0,2013-03-11 14:00:00
8:00 PM,73.4,59.0,61,29.89,2.2,Calm,Calm,-,N/A,,Haze,0,2013-03-11 14:30:00
8:30 PM,70,59,60,29.89,1,Calm,Calm,,,Rain,Light Drizzle,,2013-03-11 15:00:00
8:30 PM,69.8,59.0,68,29.89,2.2,Calm,Calm,-,N/A,,Haze,0,2013-03-11 15:00:00
9:00 PM,69.8,59.0,68,29.89,2.2,Calm,Calm,-,N/A,,Haze,0,2013-03-11 15:30:00
11:00 PM,66.2,59.0,78,29.92,1.2,Calm,Calm,-,N/A,,Scattered Clouds,0,2013-03-11 17:30:00
11:30 PM,63,59,81,29.93,1,Calm,Calm,,,,Haze,,2013-03-11 18:00:00
11:30 PM,62.6,59.0,88,29.92,1.2,Calm,Calm,-,N/A,,Scattered Clouds,0,2013-03-11 18:00:00